• In Italy
  • List of Countries
  • For 7 days
  • Water Temperature
  • Satellite Maps
  • Weather Map
  • Weather Widgets
  • user-avatar
    Login

    Hourly Weather Barnsley

    Today, 20 January, Saturday

    Time Temperature Precipitation Wind Pressure Humidity
    00:00 -1°C° 0.1 mm 4 mps 742 mmHg 84%
    01:00 0°C° 0 mm 3 mps 742 mmHg 86%
    02:00 0°C° 0 mm 3 mps 742 mmHg 87%
    03:00 0°C° 0 mm 3 mps 741 mmHg 88%
    04:00 0°C° 0 mm 3 mps 741 mmHg 88%
    05:00 +1°C° 0 mm 2 mps 741 mmHg 89%
    06:00 -1°C° 0 mm 2 mps 740 mmHg 89%
    07:00 +1°C° 0 mm 2 mps 740 mmHg 88%
    08:00 +1°C° 0 mm 2 mps 740 mmHg 88%
    09:00 +2°C° 0 mm 1 mps 740 mmHg 87%
    10:00 +3°C° 0.1 mm 1 mps 740 mmHg 86%
    11:00 +4°C° 0.1 mm 1 mps 740 mmHg 86%
    12:00 +4°C° 0.1 mm 1 mps 740 mmHg 85%
    13:00 +4°C° 0.5 mm 1 mps 740 mmHg 86%
    14:00 +4°C° 0.5 mm 1 mps 739 mmHg 87%
    15:00 +4°C° 0.5 mm 1 mps 739 mmHg 88%
    16:00 +3°C° 0.2 mm 1 mps 740 mmHg 89%
    17:00 +3°C° 0.2 mm 1 mps 741 mmHg 89%
    18:00 +1°C° 0.2 mm 2 mps 742 mmHg 89%
    19:00 +1°C° 0 mm 2 mps 743 mmHg 89%
    20:00 -1°C° 0 mm 2 mps 744 mmHg 88%
    21:00 -1°C° 0 mm 2 mps 745 mmHg 88%
    22:00 +1°C° 0 mm 1 mps 745 mmHg 86%
    23:00 +1°C° 0 mm 1 mps 746 mmHg 85%

    Tomorrow, 21 January, Sunday

    Time Temperature Precipitation Wind Pressure Humidity
    00:00 +1°C° 0 mm 1 mps 746 mmHg 83%
    01:00 +1°C° 0 mm 1 mps 747 mmHg 82%
    02:00 +2°C° 0 mm 1 mps 747 mmHg 81%
    03:00 +2°C° 0 mm 1 mps 747 mmHg 80%
    04:00 +2°C° 0.3 mm 1 mps 747 mmHg 81%
    05:00 +2°C° 0.3 mm 1 mps 747 mmHg 82%
    06:00 +1°C° 0.3 mm 2 mps 747 mmHg 84%
    07:00 0°C° 0.9 mm 3 mps 747 mmHg 86%
    08:00 -1°C° 0.9 mm 4 mps 746 mmHg 88%
    09:00 -1°C° 0.9 mm 5 mps 746 mmHg 90%
    10:00 -1°C° 1 mm 5 mps 746 mmHg 91%
    11:00 -1°C° 1 mm 5 mps 745 mmHg 93%
    12:00 -2°C° 1 mm 6 mps 745 mmHg 94%
    13:00 -1°C° 1.4 mm 5 mps 744 mmHg 95%
    14:00 -1°C° 1.4 mm 5 mps 743 mmHg 96%
    15:00 0°C° 1.4 mm 4 mps 743 mmHg 97%
    16:00 0°C° 0.9 mm 4 mps 742 mmHg 98%
    17:00 +1°C° 0.9 mm 3 mps 742 mmHg 98%
    18:00 +2°C° 0.9 mm 3 mps 742 mmHg 99%
    19:00 +2°C° 0.4 mm 3 mps 742 mmHg 99%
    20:00 +4°C° 0.4 mm 2 mps 742 mmHg 99%
    21:00 +4°C° 0.4 mm 2 mps 741 mmHg 99%
    22:00 +4°C° 0 mm 3 mps 741 mmHg 99%
    23:00 +5°C° 0 mm 4 mps 741 mmHg 98%

    Day after tomorrow, 22 January, Monday

    Time Temperature Precipitation Wind Pressure Humidity
    00:00 +6°C° 0 mm 5 mps 741 mmHg 98%
    01:00 +5°C° 0 mm 4 mps 742 mmHg 97%
    02:00 +5°C° 0 mm 4 mps 742 mmHg 97%
    03:00 +5°C° 0 mm 3 mps 742 mmHg 97%
    04:00 +5°C° 0 mm 3 mps 742 mmHg 97%
    05:00 +5°C° 0 mm 3 mps 743 mmHg 97%
    06:00 +5°C° 0 mm 3 mps 743 mmHg 97%
    07:00 +4°C° 0 mm 3 mps 744 mmHg 97%
    08:00 +4°C° 0 mm 3 mps 744 mmHg 96%
    09:00 +3°C° 0 mm 3 mps 745 mmHg 95%
    10:00 +4°C° 0 mm 3 mps 746 mmHg 91%
    11:00 +5°C° 0 mm 4 mps 746 mmHg 87%
    12:00 +5°C° 0 mm 4 mps 747 mmHg 83%
    13:00 +5°C° 0 mm 4 mps 748 mmHg 83%
    14:00 +5°C° 0 mm 3 mps 748 mmHg 84%
    15:00 +5°C° 0 mm 3 mps 749 mmHg 84%
    16:00 +4°C° 0 mm 3 mps 749 mmHg 86%
    17:00 +3°C° 0 mm 3 mps 750 mmHg 88%
    18:00 +3°C° 0 mm 3 mps 750 mmHg 90%
    19:00 +3°C° 0 mm 3 mps 750 mmHg 90%
    20:00 +2°C° 0 mm 3 mps 751 mmHg 91%
    21:00 +2°C° 0 mm 3 mps 751 mmHg 91%
    22:00 +3°C° 0 mm 4 mps 751 mmHg 91%
    23:00 +3°C° 0 mm 4 mps 751 mmHg 91%

    23 January, Tuesday

    Time Temperature Precipitation Wind Pressure Humidity
    00:00 +3°C° 0 mm 4 mps 750 mmHg 91%
    01:00 +3°C° 0 mm 5 mps 750 mmHg 91%
    02:00 +3°C° 0 mm 5 mps 750 mmHg 91%
    03:00 +4°C° 0 mm 6 mps 750 mmHg 92%
    04:00 +4°C° 0 mm 6 mps 749 mmHg 91%
    05:00 +4°C° 0 mm 6 mps 749 mmHg 91%
    06:00 +5°C° 0 mm 6 mps 748 mmHg 90%
    07:00 +5°C° 0 mm 6 mps 748 mmHg 90%
    08:00 +6°C° 0 mm 7 mps 748 mmHg 91%
    09:00 +8°C° 0 mm 7 mps 749 mmHg 91%
    10:00 +9°C° 0 mm 7 mps 748 mmHg 89%
    11:00 +9°C° 0 mm 7 mps 748 mmHg 87%
    12:00 +10°C° 0 mm 7 mps 748 mmHg 85%
    13:00 +10°C° 0 mm 7 mps 748 mmHg 84%
    14:00 +10°C° 0 mm 7 mps 748 mmHg 84%
    15:00 +10°C° 0 mm 7 mps 747 mmHg 83%
    16:00 +10°C° 0.3 mm 7 mps 747 mmHg 84%
    17:00 +10°C° 0.3 mm 7 mps 747 mmHg 85%
    18:00 +9°C° 0.3 mm 7 mps 747 mmHg 85%
    19:00 +10°C° 0 mm 8 mps 746 mmHg 85%
    20:00 +10°C° 0 mm 8 mps 746 mmHg 85%
    21:00 +10°C° 0 mm 9 mps 746 mmHg 84%
    22:00 +10°C° 0.1 mm 9 mps 745 mmHg 84%
    23:00 +10°C° 0.1 mm 9 mps 745 mmHg 84%

    24 January, Wednesday

    Time Temperature Precipitation Wind Pressure Humidity
    00:00 +10°C° 0.1 mm 9 mps 745 mmHg 84%
    01:00 +10°C° 0.1 mm 9 mps 744 mmHg 83%
    02:00 +11°C° 0.1 mm 9 mps 744 mmHg 83%
    03:00 +11°C° 0.1 mm 9 mps 744 mmHg 83%
    04:00 +10°C° 0.2 mm 9 mps 743 mmHg 83%
    05:00 +10°C° 0.2 mm 9 mps 743 mmHg 83%
    06:00 +10°C° 0.2 mm 8 mps 743 mmHg 83%
    07:00 +10°C° 2 mm 7 mps 743 mmHg 85%
    08:00 +9°C° 2 mm 6 mps 743 mmHg 88%
    09:00 +9°C° 2 mm 5 mps 743 mmHg 90%
    10:00 +8°C° 1.4 mm 5 mps 743 mmHg 89%
    11:00 +8°C° 1.4 mm 5 mps 743 mmHg 87%
    12:00 +7°C° 1.4 mm 5 mps 743 mmHg 86%
    13:00 +7°C° 0.5 mm 5 mps 743 mmHg 82%
    14:00 +6°C° 0.5 mm 5 mps 743 mmHg 79%
    15:00 +6°C° 0.5 mm 5 mps 743 mmHg 76%
    16:00 +6°C° 0.1 mm 5 mps 743 mmHg 76%
    17:00 +5°C° 0.1 mm 5 mps 743 mmHg 77%
    18:00 +5°C° 0.1 mm 5 mps 744 mmHg 78%
    19:00 +5°C° 0 mm 5 mps 744 mmHg 78%
    20:00 +3°C° 0 mm 5 mps 744 mmHg 78%
    21:00 +3°C° 0 mm 5 mps 745 mmHg 78%
    22:00 +3°C° 0 mm 5 mps 745 mmHg 79%
    23:00 +3°C° 0 mm 5 mps 745 mmHg 79%

    25 January, Thursday

    Time Temperature Precipitation Wind Pressure Humidity
    00:00 +2°C° 0 mm 5 mps 745 mmHg 80%
    01:00 +2°C° 0 mm 5 mps 745 mmHg 80%
    02:00 +2°C° 0 mm 5 mps 745 mmHg 81%
    03:00 +2°C° 0 mm 5 mps 745 mmHg 81%
    04:00 +2°C° 0 mm 5 mps 745 mmHg 81%
    05:00 +2°C° 0 mm 5 mps 745 mmHg 82%
    06:00 +2°C° 0 mm 6 mps 745 mmHg 82%
    07:00 +2°C° 0 mm 6 mps 745 mmHg 80%
    08:00 +2°C° 0 mm 6 mps 745 mmHg 79%
    09:00 +2°C° 0 mm 7 mps 745 mmHg 78%
    10:00 +3°C° 0.1 mm 7 mps 745 mmHg 75%
    11:00 +4°C° 0.1 mm 8 mps 745 mmHg 73%
    12:00 +5°C° 0.1 mm 9 mps 745 mmHg 70%
    13:00 +5°C° 0.1 mm 8 mps 745 mmHg 69%
    14:00 +5°C° 0.1 mm 8 mps 745 mmHg 68%
    15:00 +5°C° 0.1 mm 8 mps 745 mmHg 67%
    16:00 +4°C° 0.1 mm 7 mps 745 mmHg 69%
    17:00 +3°C° 0.1 mm 7 mps 746 mmHg 71%
    18:00 +3°C° 0.1 mm 6 mps 747 mmHg 73%
    19:00 +2°C° 0 mm 6 mps 747 mmHg 73%
    20:00 +2°C° 0 mm 6 mps 748 mmHg 73%
    21:00 +2°C° 0 mm 6 mps 749 mmHg 72%
    22:00 +2°C° 0.1 mm 6 mps 749 mmHg 74%
    23:00 +2°C° 0.1 mm 6 mps 750 mmHg 75%
    Show more